Date String (YYYY-MM-DD hh:mm:ss) UTC,Instrument flags,Ambient pressure (hPa),Sample flow (lpm),Bypass flow (lpm),Sample temperature (°C),Ambient temperature (°C),ASC tube jacket temperature (°C),LED temperature (°C),Box temperature (°C),Sample RH (%),Span deviation,Mass concentration (μg/m³),Mass concentration (μg/m³),Mass concentration (μg/m³)
DateTimeUTC,F1_M11,P_M11,Q1_M11,Q2_M11,T1_M11,T2_M11,T3_M11,T4_M11,T5_M11,U1_M11,ZSPAN_M11,X2_M11,X0_M11,X1_M11
2022-06-05 16:00:00,,0820.8,5.00,0.00,29.7,28.8,00.0,38.5,31.6,20.7,0000.0,0003.94,0009.27,0002.65
2022-06-05 16:01:00,,0820.8,5.00,0.00,29.7,28.6,00.0,38.5,31.6,19.2,0000.0,0003.98,0009.49,0002.65
2022-06-05 16:02:00,,0820.8,5.00,0.00,29.7,27.9,00.0,38.4,31.5,20.4,0000.0,0004.00,0009.64,0002.65
2022-06-05 16:03:00,,0820.8,5.00,0.00,29.6,27.3,00.0,38.4,31.3,21.0,0000.0,0003.93,0009.66,0002.63
2022-06-05 16:04:00,,0820.7,5.00,0.00,29.5,27.2,00.0,38.3,31.2,20.8,0000.0,0003.95,0010.25,0002.65
2022-06-05 16:05:00,,0820.7,4.99,0.00,29.5,27.2,00.0,38.3,31.2,21.9,0000.0,0003.97,0010.43,0002.64
2022-06-05 16:06:00,,0820.7,4.99,0.00,29.4,27.4,00.0,38.3,31.2,21.9,0000.0,0004.03,0010.43,0002.66
2022-06-05 16:07:00,,0820.7,5.01,0.00,29.4,27.5,00.0,38.3,31.2,22.4,0000.0,0004.04,0010.20,0002.65
2022-06-05 16:08:00,,0820.7,5.01,0.00,29.4,27.7,00.0,38.3,31.2,21.2,0000.0,0004.04,0010.13,0002.66
2022-06-05 16:09:00,,0820.7,5.00,0.00,29.4,27.8,00.0,38.3,31.3,21.4,0000.0,0003.98,0010.06,0002.67
2022-06-05 16:10:00,,0820.7,5.00,0.00,29.4,27.9,00.0,38.3,31.3,21.6,0000.0,0003.98,0010.19,0002.68
2022-06-05 16:11:00,,0820.7,4.99,0.00,29.4,28.1,00.0,38.3,31.3,21.1,0000.0,0003.96,0010.08,0002.68
2022-06-05 16:12:00,,0820.6,5.00,0.00,29.4,28.2,00.0,38.3,31.3,21.9,0000.0,0003.92,0009.81,0002.69
2022-06-05 16:13:00,,0820.7,5.00,0.00,29.5,28.3,00.0,38.3,31.4,21.5,0000.0,0003.89,0009.58,0002.70
2022-06-05 16:14:00,,0820.7,5.01,0.00,29.5,28.3,00.0,38.3,31.4,22.2,0000.0,0003.90,0009.54,0002.73
2022-06-05 16:15:00,,0820.7,5.00,0.00,29.5,28.4,00.0,38.3,31.4,22.3,0000.0,0003.90,0009.27,0002.73
2022-06-05 16:16:00,,0820.6,5.01,0.00,29.5,28.5,00.0,38.3,31.4,22.7,0000.0,0003.86,0009.23,0002.75
2022-06-05 16:17:00,,0820.7,4.99,0.00,29.5,28.5,00.0,38.4,31.5,22.1,0000.0,0003.80,0009.27,0002.75
2022-06-05 16:18:00,,0820.6,4.98,0.00,29.6,28.6,00.0,38.4,31.5,21.5,0000.0,0003.80,0009.36,0002.77
2022-06-05 16:19:00,,0820.7,5.01,0.00,29.6,28.7,00.0,38.4,31.5,22.4,0000.0,0003.84,0009.65,0002.77
2022-06-05 16:20:00,,0820.6,5.00,0.00,29.6,28.7,00.0,38.4,31.6,22.4,0000.0,0003.90,0010.54,0002.78
2022-06-05 16:21:00,,0820.6,4.99,0.00,29.6,28.5,00.0,38.4,31.5,22.4,0000.0,0003.88,0010.51,0002.79
2022-06-05 16:22:00,,0820.5,5.01,0.00,29.6,27.6,00.0,38.3,31.3,22.2,0000.0,0003.88,0010.43,0002.79
2022-06-05 16:23:00,,0820.6,4.99,0.00,29.5,27.1,00.0,38.3,31.1,21.9,0000.0,0003.91,0010.39,0002.79
2022-06-05 16:24:00,,0820.6,5.02,0.00,29.4,27.1,00.0,38.3,31.1,20.7,0000.0,0003.93,0010.51,0002.77
2022-06-05 16:25:00,,0820.6,4.99,0.00,29.4,27.2,00.0,38.3,31.1,21.6,0000.0,0003.93,0010.42,0002.75
2022-06-05 16:26:00,,0820.6,4.99,0.00,29.3,27.3,00.0,38.2,31.1,21.5,0000.0,0003.90,0010.29,0002.74
2022-06-05 16:27:00,,0820.6,5.00,0.00,29.3,27.5,00.0,38.2,31.1,21.6,0000.0,0003.93,0009.89,0002.72
2022-06-05 16:28:00,,0820.6,4.99,0.00,29.3,27.6,00.0,38.2,31.2,22.1,0000.0,0003.97,0009.84,0002.71
2022-06-05 16:29:00,,0820.5,5.00,0.00,29.3,27.8,00.0,38.2,31.2,22.3,0000.0,0003.93,0010.03,0002.69
2022-06-05 16:30:00,,0820.6,5.00,0.00,29.3,27.9,00.0,38.2,31.2,23.2,0000.0,0003.86,0009.71,0002.69
2022-06-05 16:31:00,,0820.5,4.99,0.00,29.3,28.0,00.0,38.2,31.2,21.6,0000.0,0003.80,0008.78,0002.66
2022-06-05 16:32:00,,0820.5,5.00,0.00,29.4,28.1,00.0,38.2,31.3,22.0,0000.0,0003.78,0008.56,0002.65
2022-06-05 16:33:00,,0820.6,4.99,0.00,29.4,28.2,00.0,38.2,31.3,21.7,0000.0,0003.81,0009.05,0002.65
2022-06-05 16:34:00,,0820.6,5.00,0.00,29.4,28.3,00.0,38.2,31.3,21.5,0000.0,0003.81,0009.70,0002.66
2022-06-05 16:35:00,,0820.5,4.99,0.00,29.4,28.4,00.0,38.2,31.4,21.0,0000.0,0003.81,0010.11,0002.67
2022-06-05 16:36:00,,0820.5,5.00,0.00,29.5,28.5,00.0,38.3,31.4,21.6,0000.0,0003.81,0010.11,0002.68
2022-06-05 16:37:00,,0820.6,5.01,0.00,29.5,28.5,00.0,38.3,31.4,23.4,0000.0,0003.78,0010.28,0002.68
2022-06-05 16:38:00,,0820.5,5.00,0.00,29.5,28.6,00.0,38.3,31.5,21.7,0000.0,0003.72,0010.30,0002.68
2022-06-05 16:39:00,,0820.5,5.00,0.00,29.5,28.6,00.0,38.3,31.5,23.1,0000.0,0003.70,0010.08,0002.69
2022-06-05 16:40:00,,0820.5,5.00,0.00,29.5,28.1,00.0,38.3,31.4,22.0,0000.0,0003.73,0009.85,0002.70
2022-06-05 16:41:00,,0820.5,5.01,0.00,29.5,27.6,00.0,38.2,31.3,22.1,0000.0,0003.79,0010.06,0002.71
2022-06-05 16:42:00,,0820.6,4.99,0.00,29.5,27.6,00.0,38.2,31.2,21.8,0000.0,0003.80,0010.19,0002.72
2022-06-05 16:43:00,,0820.6,4.99,0.00,29.4,27.6,00.0,38.2,31.2,22.6,0000.0,0003.85,0010.57,0002.74
2022-06-05 16:44:00,,0820.6,5.01,0.00,29.4,27.7,00.0,38.2,31.2,21.7,0000.0,0003.86,0010.48,0002.74
2022-06-05 16:45:00,,0820.5,5.00,0.00,29.4,27.8,00.0,38.2,31.2,21.7,0000.0,0003.85,0009.86,0002.75
2022-06-05 16:46:00,,0820.5,5.01,0.00,29.4,28.0,00.0,38.2,31.3,22.8,0000.0,0003.89,0009.56,0002.76
2022-06-05 16:47:00,,0820.6,5.00,0.00,29.4,28.1,00.0,38.2,31.3,22.5,0000.0,0003.92,0009.98,0002.77
2022-06-05 16:48:00,,0820.5,4.99,0.00,29.4,28.2,00.0,38.3,31.3,22.1,0000.0,0003.95,0010.25,0002.81
2022-06-05 16:49:00,,0820.6,5.01,0.00,29.4,28.3,00.0,38.3,31.4,21.1,0000.0,0004.01,0010.91,0002.84
2022-06-05 16:50:00,,0820.5,5.01,0.00,29.5,28.4,00.0,38.3,31.4,21.3,0000.0,0004.08,0011.03,0002.88
2022-06-05 16:51:00,,0820.5,5.01,0.00,29.5,28.5,00.0,38.3,31.4,21.7,0000.0,0004.15,0011.06,0002.95
2022-06-05 16:52:00,,0820.5,5.00,0.00,29.5,28.5,00.0,38.3,31.5,23.6,0000.0,0004.15,0010.90,0003.01
2022-06-05 16:53:00,,0820.5,4.99,0.00,29.5,28.6,00.0,38.3,31.5,23.7,0000.0,0004.23,0011.52,0003.09
2022-06-05 16:54:00,,0820.5,5.01,0.00,29.5,28.0,00.0,38.3,31.4,22.0,0000.0,0004.27,0011.90,0003.15
2022-06-05 16:55:00,,0820.4,5.00,0.00,29.5,27.2,00.0,38.2,31.2,22.2,0000.0,0004.30,0012.06,0003.18
2022-06-05 16:56:00,,0820.4,5.00,0.00,29.4,27.0,00.0,38.2,31.1,21.8,0000.0,0004.35,0012.29,0003.21
2022-06-05 16:57:00,,0820.3,5.00,0.00,29.3,27.0,00.0,38.2,31.0,22.5,0000.0,0004.38,0012.37,0003.24
2022-06-05 16:58:00,,0820.3,4.99,0.00,29.3,27.1,00.0,38.1,31.0,22.7,0000.0,0004.38,0012.62,0003.26
2022-06-05 16:59:00,,0820.3,5.01,0.00,29.2,27.3,00.0,38.1,31.0,23.2,0000.0,0004.43,0013.83,0003.28
